Regional Weather Roundup
Issued by NWS

Home | Current Version | Previous Version | Text Only | Print | Product List | Glossary On
Versions: 1 2 3 4 5 6 7 8 9 10 11 12 13 14 15 16 17 18 19 20 21 22 23 24 25 26 27 28 29 30 31 32 33 34 35 36 37 38 39 40 41 42 43 44 45 46 47 48 49 50
000
ASUS42 KKEY 210410
RWRKEY

FLORIDA REGIONAL WEATHER ROUNDUP FOR THE FLORIDA KEYS
NATIONAL WEATHER SERVICE KEY WEST FLORIDA
1200 AM EDT THU AUG 21 2014

...SOUTH FLORIDA AND THE KEYS...

CITY           SKY/WX    TMP DP  RH WIND       PRES   REMARKS
FORT MYERS     MOCLDY    80  74  81 CALM      30.09S
SW REGIONAL AP PTCLDY    78  74  87 CALM      30.11R
NAPLES         CLEAR     78  76  93 E3        30.10R
MIAMI          PTCLDY    84  75  74 SE6       30.10S HX  92
WEST KENDALL   CLEAR     82  76  81 CALM      30.10R
HOMESTEAD      CLEAR     82  77  85 CALM      30.10R
MARATHON       CLEAR     86  76  71 E6        30.09R HX  96
BOCA CHICA NAS CLEAR     83  77  82 NE3       30.09R THUNDER HX  92
KEY WEST INTL  CLEAR     84  75  74 NE3       30.10R HX  92

...INTERNATIONAL WEATHER...

CITY           SKY/WX    TMP DP  RH WIND       PRES   REMARKS
NASSAU BAHAMAS PTCLDY    84  75  74 S7        30.12S HX  92
CANCUN MEXICO  CLEAR     84  79  84 E3        30.06S HX  96
COZUMEL MEXICO PTCLDY    79  77  94 E3        30.06S

ADJACENT COASTAL WATERS...

STATION/POSITION TIME  SKY/WX   TEMP    WIND        PRES    WAVE
                                AIR SEA DIR/SP/G            HT/PER
                 (UTC)          (F)     (DEG/KT/KT) (MB)    (FT/S)
PULASKI SHOAL LI 0400            86     120/  9/  9 1018.8R
SAND KEY         0400            85      80/  9/ 10 1019.0R
SOMBRERO KEY     0400            86      80/  8/  9 1019.6R
LONG KEY         0400            86 91  140/  7/  8 1019.7R
MOLASSES REEF    0400            85 88  120/  8/  9 1019.1R
FOWEY ROCKS      0400            85 88  110/  8/  9 1019.5S
Buoy 42080       NOT AVBL

$$



USA.gov is the U.S. government's official web portal to all federal, state and local government web resources and services.